Location: ??????
(56.0120°N, 39.1740°E)
Time: 17:16:05
(UTC+00:00)

Cosmos 2237 Rocket - Pass Details

Date: 14 April 2026
Orbit: 833 x 850 km, 71.0° (Epoch: 16 May)

Event Time Altitude Azimuth Distance (km) Brightness Sun altitude
Rises 19:58:54 0° 236° (SW) 3,402 5.2 -22.0°
Reaches altitude 10° 20:01:26 10° 242° (WSW) 2,472 4.6 -22.2°
Maximum altitude 20:06:55 48° 316° (NW) 1,110 3.2 -22.4°
Drops below altitude 10° 20:12:27 10° 30° (NNE) 2,489 5.2 -22.7°
Sets 20:15:01 0° 37° (NE) 3,428 5.9 -22.8°
